Tous vos exploits sur  Logo Planète Marathon le site 100% Marathon

Louis Persoons Memorial (Belgique)              Donnez votre avis sur l'édition 2017

Le 29/01/2017 - 13ème édition - 168 arrivants.                                                       

Clmt. Temps Nom Prénom Club Organisme Catégorie
1 2:54:49 Jacobs Joris (BEL) M-35 (+)
2 2:56:04 Leus Frankie (BEL) M+50 (+)
3 2:58:09 Mertens Gert M+50 (+)
4 3:02:44 De Coster Maarten M+35 (+)
5 3:04:15 Van Genechten Benny (BEL) M+35 (+)
6 3:10:15 Foster Paul M+35 (+)
7 3:11:14 Joos Pauwel M+50 (+)
8 3:11:49 Chittka Jorg M+50 (+)
9 3:12:03 Dhooge Chris M+35 (+)
10 3:13:01 Van Doninck Ivo M+35 (+)
11 3:13:07 Van Daele Rudy M+50 (+)
12 3:13:10 Backs Jeroen M+35 (+)
13 3:14:00 Vanhove Johny M+35 (+)
14 3:14:31 Dreesen Dennis M-35 (+)
15 3:16:18 Van Massenhoven Lieven M+35 (+)
16 3:16:32 Pierre Frederic M+35 (+)
17 3:21:20 Kyte Vivian (NOR) F-35 (+)
18 3:22:39 Loos Gerrit M+35 (+)
19 3:23:24 Badot Benoit M-35 (+)
20 3:23:46 Billet Sebastien (FRA) M+35 (+)
21 3:23:52 Boesmans Marc M+50 (+)
22 3:24:39 Verbruggen Xavier (BEL) M+50 (+)
23 3:25:14 Gierling Volker M+50 (+)
24 3:25:25 Gosen Gerry M+35 (+)
25 3:25:38 Palfi Janos M+35 (+)
26 3:26:01 Guillaumin Roger (FRA) V3M/56 (+)
27 3:26:04 Haenen Jo M+50 (+)
28 3:26:18 Dendal Didier M+50 (+)
29 3:28:02 Marechal Jerome M-35 (+)
30 3:28:17 Marrabou Mohamed M+50 (+)
31 3:28:23 Coussee Koenraad M+50 (+)
32 3:28:43 Vinck Geert M+35 (+)
33 3:28:56 De Hauwere Robin M+35 (+)
34 3:29:14 Palmans Peter M+50 (+)
35 3:29:35 Van Loon Stef M+35 (+)
36 3:30:14 Lenaerts Edwin M+50 (+)
37 3:30:56 Mastroianni Beniamino M+50 (+)
38 3:31:26 Dani?ls Raf M+35 (+)
39 3:31:34 Van Vooren David M+35 (+)
40 3:31:47 Vandermeeren Bert M+35 (+)
41 3:33:44 Devos Kris M+35 (+)
42 3:34:30 Vogt Wolfgang M+50 (+)
43 3:36:07 Tournay Martin M-35 (+)
44 3:36:13 O'donnell Avril F-45 (+)
45 3:36:29 Schelstraete Nico M+35 (+)
46 3:36:29 Habex Jean-pierre M+60 (+)
47 3:39:01 Swennen Daan M+35 (+)
48 3:39:18 Lenaerts Michiel M-35 (+)
49 3:40:07 Kaes Henk M+50 (+)
50 3:41:27 Van Soom Kurt M+35 (+)
51 3:42:21 Hogentoren Wim (NED) M+50 (+)
52 3:43:10 Hermans Jean M+60 (+)
53 3:43:17 Turatsinze Jean-valery (BEL) M-35 (+)
54 3:43:37 Thuret Philippe (FRA) M+50 (+)
55 3:43:51 De Vuyst Lode M+35 (+)
56 3:45:00 Wellens Pascal M+35 (+)
57 3:45:28 Beffort Marc (LUX) M+50 (+)
58 3:45:28 Bourlon-thuret Beatrice (FRA) V2F/65 (+)
59 3:46:34 Verbrugghe Stefaan M+35 (+)
60 3:47:21 Andries Maximiliaan M-35 (+)
61 3:48:08 Ambroos Mario M+35 (+)
62 3:48:10 Schepkens Yves M+35 (+)
63 3:48:18 Van Lierde Marc M+35 (+)
64 3:48:19 Lathouwers Gust M+60 (+)
65 3:48:56 Grossmann Dirk M+50 (+)
66 3:49:58 Callant Paul M+60 (+)
67 3:50:05 Loeber Ralf M+35 (+)
68 3:50:36 Theelen J?rg M+50 (+)
69 3:50:52 Timmermans Niky M-35 (+)
70 3:51:17 Van Nuenen Jan M+60 (+)
71 3:51:53 Jorissen Johan M+35 (+)
72 3:52:06 Beernaert Veerle F+45 (+)
73 3:52:07 Van Thuyne Dirk M+35 (+)
74 3:52:07 Braekeveld Belle F-45 (+)
75 3:52:39 Luyten Willy M+60 (+)
76 3:53:29 Praet Nico M-35 (+)
77 3:53:39 Piccart Guy M+60 (+)
78 3:53:56 Coopman Jonas M-35 (+)
79 3:54:07 De Schryver Danny M+50 (+)
80 3:54:13 Braem Jasko M-35 (+)
81 3:54:44 Boussemaere Roland M+60 (+)
82 3:54:50 Mols Frank M+50 (+)
83 3:54:53 Slootmans Gunter M+35 (+)
84 3:55:01 Daniels Wim M+35 (+)
85 3:55:19 Zachau Axel M+35 (+)
86 3:55:22 Sanchez Jorge (BEL) M+50 (+)
87 3:55:36 Claereboudt Jan M+50 (+)
88 3:56:46 Kloek Patrick M+50 (+)
89 3:57:22 Scholz Thomas M+35 (+)
90 3:58:28 De Bock Maarten M+35 (+)
91 3:58:38 Kilianski Rafal M+35 (+)
92 3:58:38 Smolenski Piotr M+35 (+)
93 3:59:03 Flies Dirk M+50 (+)
94 3:59:13 Winters Erik M+35 (+)
95 3:59:39 Ermens Francis F+45 (+)
96 4:00:34 Van Bruggen Michel M+50 (+)
97 4:00:36 Verschuere Patricia F+45 (+)
98 4:02:02 Keemink Arend M+50 (+)
99 4:02:42 Costermans Herman M+60 (+)
100 4:02:44 Kestens Sylvia F+45 (+)
101 4:04:45 Meyers Bart M+50 (+)
102 4:05:43 Coninx Carl M-35 (+)
103 4:06:13 Sant Yvonne F+45 (+)
104 4:07:14 Van Avesaath Lianne F+45 (+)
105 4:08:01 De Lee Johan M+35 (+)
106 4:08:13 Winkel Bart M+35 (+)
107 4:08:13 Biesmans Patrick M+35 (+)
108 4:08:58 Gottberg Chris M+35 (+)
109 4:09:12 Haustrate Fred (BEL) M+50 (+)
110 4:09:13 Suls Arno M-35 (+)
111 4:09:21 Rens Gert M+35 (+)
112 4:09:26 Rykkje Silje F-35 (+)
113 4:09:26 Dybpahl Geir M+35 (+)
114 4:12:24 Heraut Veronique F+45 (+)
115 4:12:42 Annegarn Els F+45 (+)
116 4:13:50 Van Hiel Paul M+35 (+)
117 4:14:02 Vandebeek Frank M+35 (+)
118 4:14:23 Suijkerbuijk Peter M+60 (+)
119 4:14:25 Avau Benoit M+50 (+)
120 4:14:39 Nijs Dirk F-45 (+)
121 4:16:42 Vandewal Jacques M+60 (+)
122 4:16:42 Poot Henri M+50 (+)
123 4:16:53 Geusens Lieven M+35 (+)
124 4:18:48 Soetekouw Martien F+45 (+)
125 4:18:48 Pijnenburg Wim M+50 (+)
126 4:19:06 Houbiers Sylvie F-45 (+)
127 4:19:06 Nelsen Ferdinand M+60 (+)
128 4:19:13 Theunissen Gertie (NED) F+45 (+)
129 4:19:42 Van Der Heyden Willem M+60 (+)
130 4:21:33 De Wit Chirs M+50 (+)
131 4:22:05 Reumkens Wim M+50 (+)
132 4:23:46 Ducarme Gaetan M-35 (+)
133 4:25:43 Brenger Wolfgang M+50 (+)
134 4:25:43 F?rster Frank M+35 (+)
135 4:25:56 Geelen Heidi F-45 (+)
136 4:31:27 Wilputte Sebastien M+35 (+)
137 4:31:37 Blyaert Marc M+50 (+)
138 4:31:37 Sipers Henk M+60 (+)
139 4:31:46 Vlemincx Dirk M+50 (+)
140 4:32:09 Wilfried M+60 (+)
141 4:33:32 Ambuhl Vincent M+35 (+)
142 4:33:54 Van Der Heyden Rudy M+35 (+)
143 4:35:00 De Keyser Gust M+60 (+)
144 4:35:21 Magdelyns Bruno M-35 (+)
145 4:35:47 Rochlitz Karl-heinz M+50 (+)
146 4:35:56 Templeton Stephen M+35 (+)
147 4:36:25 Melissas Stavros M+50 (+)
148 4:36:36 Middelbos Joy F-45 (+)
149 4:37:17 Comte Chantal (FRA) F+45 (+)
150 4:37:17 Comte Pascal (FRA) V2M/61 (+)
151 4:39:08 Mous Dirk M+50 (+)
152 4:41:07 Dops Ghislain M+60 (+)
153 4:45:09 Indesteege Jeroen M-35 (+)
154 4:45:18 Spitael Jan M+50 (+)
155 4:46:26 Van Keymolen Marc M+60 (+)
156 4:47:15 Vansteenkiste Koen M+50 (+)
157 4:48:29 Depoorter Bieke F-45 (+)
158 4:48:29 Vermeulen Geert M+35 (+)
159 4:50:14 Van Oirschot Piet M+60 (+)
160 4:50:14 Van Gerven Henk M+50 (+)
161 4:52:02 Colot Nathan M-35 (+)
162 4:52:56 Deschacht Jan M+50 (+)
163 4:52:56 Delgijer Marc M+50 (+)
164 4:52:56 Boustanidis Giorgos M+35 (+)
165 4:56:01 Lyneel Deborah F+45 (+)
166 5:05:12 Garip Murat M+50 (+)
167 5:41:55 Shia Qian F-45 (+)
168 5:48:52 Coenegrachts Jimmy M+35 (+)